Time,TemperatureF,DewpointF,PressureIn,WindDirection,WindDirectionDegrees,WindSpeedMPH,WindSpeedGustMPH,Humidity,HourlyPrecipIn,Conditions,Clouds,dailyrainin,SoftwareType,DateUTC
2016-07-27 00:02:00,70.0,45.9,30.00,ENE,77,0.0,0.0,42,0.00,,,0.00,meteobridge,2016-07-27 07:02:00,
2016-07-27 00:07:00,70.0,45.1,30.01,ENE,77,0.0,0.0,41,0.00,,,0.00,meteobridge,2016-07-27 07:07:00,
2016-07-27 00:12:00,70.2,45.3,30.01,ENE,77,0.0,0.0,41,0.00,,,0.00,meteobridge,2016-07-27 07:12:00,
2016-07-27 00:17:00,70.2,45.3,30.01,ENE,77,0.0,0.0,41,0.00,,,0.00,meteobridge,2016-07-27 07:17:00,
2016-07-27 00:22:00,70.2,45.3,30.01,ENE,77,0.0,0.0,41,0.00,,,0.00,meteobridge,2016-07-27 07:22:00,
2016-07-27 00:27:00,70.2,46.0,30.01,ENE,77,0.0,0.0,42,0.00,,,0.00,meteobridge,2016-07-27 07:27:00,
2016-07-27 00:32:00,70.2,46.0,30.01,ENE,77,0.0,0.0,42,0.00,,,0.00,meteobridge,2016-07-27 07:32:00,
2016-07-27 00:37:00,70.2,46.0,30.00,ENE,77,0.0,0.0,42,0.00,,,0.00,meteobridge,2016-07-27 07:37:00,
2016-07-27 00:43:00,70.0,45.9,30.01,ENE,77,0.0,0.0,42,0.00,,,0.00,meteobridge,2016-07-27 07:43:00,
2016-07-27 00:48:00,70.0,46.4,30.00,ENE,77,0.0,0.0,43,0.00,,,0.00,meteobridge,2016-07-27 07:48:00,
2016-07-27 00:53:00,69.8,46.2,30.01,ENE,77,0.0,0.0,43,0.00,,,0.00,meteobridge,2016-07-27 07:53:00,
2016-07-27 00:58:00,69.8,46.2,30.00,ENE,77,0.0,0.0,43,0.00,,,0.00,meteobridge,2016-07-27 07:58:00,
2016-07-27 01:03:00,69.8,46.2,30.00,ENE,77,0.0,0.0,43,0.00,,,0.00,meteobridge,2016-07-27 08:03:00,
2016-07-27 01:08:00,69.6,46.2,30.01,ENE,77,0.0,0.0,43,0.00,,,0.00,meteobridge,2016-07-27 08:08:00,
2016-07-27 01:13:00,69.6,46.2,30.00,ENE,77,0.0,0.0,43,0.00,,,0.00,meteobridge,2016-07-27 08:13:00,
2016-07-27 01:18:00,69.4,46.6,30.00,ENE,77,0.0,0.0,44,0.00,,,0.00,meteobridge,2016-07-27 08:18:00,
2016-07-27 01:23:00,69.4,46.0,30.00,ENE,77,0.0,0.0,43,0.00,,,0.00,meteobridge,2016-07-27 08:23:00,
2016-07-27 01:28:00,69.3,45.9,30.00,ENE,77,0.0,0.0,43,0.00,,,0.00,meteobridge,2016-07-27 08:28:00,
2016-07-27 01:33:00,69.3,45.9,30.00,ENE,77,0.0,0.0,43,0.00,,,0.00,meteobridge,2016-07-27 08:33:00,
2016-07-27 01:38:00,69.3,46.4,30.00,ENE,77,0.0,0.0,44,0.00,,,0.00,meteobridge,2016-07-27 08:38:00,
2016-07-27 01:43:00,69.1,46.2,30.00,ENE,77,0.0,0.0,44,0.00,,,0.00,meteobridge,2016-07-27 08:43:00,
2016-07-27 01:48:00,69.1,46.2,30.00,ENE,77,0.0,0.0,44,0.00,,,0.00,meteobridge,2016-07-27 08:48:00,
2016-07-27 01:54:00,68.9,46.0,30.00,ENE,77,0.0,0.0,44,0.00,,,0.00,meteobridge,2016-07-27 08:54:00,
2016-07-27 01:59:00,68.7,45.9,30.00,ENE,77,0.0,0.0,44,0.00,,,0.00,meteobridge,2016-07-27 08:59:00,
2016-07-27 02:04:00,68.7,45.9,30.00,ENE,77,0.0,0.0,44,0.00,,,0.00,meteobridge,2016-07-27 09:04:00,
2016-07-27 02:09:00,68.7,45.9,30.00,ENE,77,0.0,0.0,44,0.00,,,0.00,meteobridge,2016-07-27 09:09:00,
2016-07-27 02:12:00,68.7,45.9,30.01,ENE,77,0.0,0.0,44,0.00,,,0.00,meteobridge,2016-07-27 09:12:00,
2016-07-27 02:18:00,68.7,45.9,30.01,ENE,77,0.0,0.0,44,0.00,,,0.00,meteobridge,2016-07-27 09:18:00,
2016-07-27 02:23:00,68.5,45.7,30.01,ENE,77,0.0,0.0,44,0.00,,,0.00,meteobridge,2016-07-27 09:23:00,
2016-07-27 02:29:00,68.5,45.7,30.01,ENE,77,0.0,0.0,44,0.00,,,0.00,meteobridge,2016-07-27 09:29:00,
2016-07-27 02:34:00,68.4,45.0,30.01,ENE,77,0.0,0.0,43,0.00,,,0.00,meteobridge,2016-07-27 09:34:00,
2016-07-27 02:39:00,68.4,45.0,30.01,ENE,77,0.0,0.0,43,0.00,,,0.00,meteobridge,2016-07-27 09:39:00,
2016-07-27 02:44:00,68.4,45.7,30.01,ENE,77,0.0,0.0,44,0.00,,,0.00,meteobridge,2016-07-27 09:44:00,
2016-07-27 02:49:00,68.2,44.8,30.01,ENE,77,0.0,0.0,43,0.00,,,0.00,meteobridge,2016-07-27 09:49:00,
2016-07-27 02:54:00,68.2,44.8,30.01,ENE,77,0.0,0.0,43,0.00,,,0.00,meteobridge,2016-07-27 09:54:00,
2016-07-27 02:59:00,68.4,45.0,30.01,ENE,77,0.0,0.0,43,0.00,,,0.00,meteobridge,2016-07-27 09:59:00,
2016-07-27 03:04:00,68.2,44.8,30.01,ENE,77,0.0,0.0,43,0.00,,,0.00,meteobridge,2016-07-27 10:04:00,
2016-07-27 03:09:00,68.2,44.8,30.01,ENE,77,0.0,0.0,43,0.00,,,0.00,meteobridge,2016-07-27 10:09:00,
2016-07-27 03:14:00,68.4,45.0,30.01,ENE,77,0.0,0.0,43,0.00,,,0.00,meteobridge,2016-07-27 10:14:00,
2016-07-27 03:19:00,68.2,44.8,30.01,ENE,77,0.0,0.0,43,0.00,,,0.00,meteobridge,2016-07-27 10:19:00,
2016-07-27 03:24:00,68.2,44.8,30.01,ENE,77,0.0,0.0,43,0.00,,,0.00,meteobridge,2016-07-27 10:24:00,
2016-07-27 03:29:00,68.2,44.8,30.01,ENE,77,0.0,0.0,43,0.00,,,0.00,meteobridge,2016-07-27 10:29:00,
2016-07-27 03:35:00,68.2,45.5,30.01,ENE,77,0.0,0.0,44,0.00,,,0.00,meteobridge,2016-07-27 10:35:00,
2016-07-27 03:40:00,68.2,45.5,30.01,ENE,77,0.0,0.0,44,0.00,,,0.00,meteobridge,2016-07-27 10:40:00,
2016-07-27 03:45:00,68.2,45.5,30.02,ENE,77,0.0,0.0,44,0.00,,,0.00,meteobridge,2016-07-27 10:45:00,
2016-07-27 03:50:00,68.2,45.5,30.01,ENE,77,0.0,0.0,44,0.00,,,0.00,meteobridge,2016-07-27 10:50:00,
2016-07-27 03:55:00,68.2,44.8,30.01,ENE,77,0.0,0.0,43,0.00,,,0.00,meteobridge,2016-07-27 10:55:00,
2016-07-27 04:00:00,68.4,45.7,30.01,ENE,77,0.0,0.0,44,0.00,,,0.00,meteobridge,2016-07-27 11:00:00,
2016-07-27 04:05:00,68.2,45.5,30.01,ENE,77,0.0,0.0,44,0.00,,,0.00,meteobridge,2016-07-27 11:05:00,
2016-07-27 04:10:00,68.2,44.8,30.01,ENE,77,0.0,0.0,43,0.00,,,0.00,meteobridge,2016-07-27 11:10:00,
2016-07-27 04:16:00,68.2,44.8,30.01,ENE,77,0.0,0.0,43,0.00,,,0.00,meteobridge,2016-07-27 11:16:00,
2016-07-27 04:21:00,68.4,45.0,30.01,ENE,77,0.0,0.0,43,0.00,,,0.00,meteobridge,2016-07-27 11:21:00,
2016-07-27 04:26:00,68.5,45.1,30.01,ENE,77,0.0,0.0,43,0.00,,,0.00,meteobridge,2016-07-27 11:26:00,
2016-07-27 04:31:00,68.5,45.1,30.01,ENE,77,0.0,0.0,43,0.00,,,0.00,meteobridge,2016-07-27 11:31:00,
2016-07-27 04:36:00,68.5,44.6,30.01,ENE,77,0.0,0.0,42,0.00,,,0.00,meteobridge,2016-07-27 11:36:00,
2016-07-27 04:41:00,68.5,44.6,30.01,ENE,77,0.0,0.0,42,0.00,,,0.00,meteobridge,2016-07-27 11:41:00,
2016-07-27 04:46:00,68.5,44.6,30.01,ENE,77,0.0,0.0,42,0.00,,,0.00,meteobridge,2016-07-27 11:46:00,
2016-07-27 04:51:00,68.7,44.8,30.01,ENE,77,0.0,0.0,42,0.00,,,0.00,meteobridge,2016-07-27 11:51:00,
2016-07-27 04:56:00,68.9,44.2,30.01,ENE,77,0.0,0.0,41,0.00,,,0.00,meteobridge,2016-07-27 11:56:00,
2016-07-27 05:01:00,69.1,45.0,30.01,ENE,77,0.0,0.0,42,0.00,,,0.00,meteobridge,2016-07-27 12:01:00,
2016-07-27 05:06:00,69.1,45.0,30.01,ENE,77,0.0,0.0,42,0.00,,,0.00,meteobridge,2016-07-27 12:06:00,
2016-07-27 05:11:00,69.1,45.0,30.01,ENE,77,0.0,0.0,42,0.00,,,0.00,meteobridge,2016-07-27 12:11:00,
2016-07-27 05:16:00,69.1,44.4,30.01,ENE,77,0.0,0.0,41,0.00,,,0.00,meteobridge,2016-07-27 12:16:00,
2016-07-27 05:21:00,69.1,44.4,30.01,ENE,77,0.0,0.0,41,0.00,,,0.00,meteobridge,2016-07-27 12:21:00,
2016-07-27 05:27:00,69.1,44.4,30.00,ENE,77,0.0,0.0,41,0.00,,,0.00,meteobridge,2016-07-27 12:27:00,
2016-07-27 05:32:00,69.1,44.4,30.01,ENE,77,0.0,0.0,41,0.00,,,0.00,meteobridge,2016-07-27 12:32:00,
2016-07-27 05:37:00,69.1,44.4,30.01,ENE,77,0.0,0.0,41,0.00,,,0.00,meteobridge,2016-07-27 12:37:00,
2016-07-27 05:42:00,69.1,44.4,30.01,ENE,77,0.0,0.0,41,0.00,,,0.00,meteobridge,2016-07-27 12:42:00,
2016-07-27 05:47:00,68.9,44.8,30.01,ENE,77,0.0,0.0,42,0.00,,,0.00,meteobridge,2016-07-27 12:47:00,
2016-07-27 05:52:00,68.7,44.8,30.01,ENE,77,0.0,0.0,42,0.00,,,0.00,meteobridge,2016-07-27 12:52:00,
2016-07-27 05:57:00,68.7,44.8,30.01,ENE,77,0.0,0.0,42,0.00,,,0.00,meteobridge,2016-07-27 12:57:00,
2016-07-27 06:02:00,68.5,44.6,30.01,ENE,77,0.0,0.0,42,0.00,,,0.00,meteobridge,2016-07-27 13:02:00,
2016-07-27 06:08:00,68.5,43.9,30.02,ENE,77,0.0,0.0,41,0.00,,,0.00,meteobridge,2016-07-27 13:08:00,
2016-07-27 06:13:00,68.5,44.6,30.02,ENE,77,0.0,0.0,42,0.00,,,0.00,meteobridge,2016-07-27 13:13:00,
2016-07-27 06:18:00,68.5,43.9,30.02,ENE,77,0.0,0.0,41,0.00,,,0.00,meteobridge,2016-07-27 13:18:00,
2016-07-27 06:23:00,68.5,43.9,30.02,ENE,77,0.0,0.0,41,0.00,,,0.00,meteobridge,2016-07-27 13:23:00,
2016-07-27 06:28:00,68.5,43.9,30.02,ENE,77,0.0,0.0,41,0.00,,,0.00,meteobridge,2016-07-27 13:28:00,
2016-07-27 06:33:00,68.5,44.6,30.02,ENE,77,0.0,0.0,42,0.00,,,0.00,meteobridge,2016-07-27 13:33:00,
2016-07-27 06:38:00,68.4,45.0,30.02,ENE,77,0.0,0.0,43,0.00,,,0.00,meteobridge,2016-07-27 13:38:00,
2016-07-27 06:43:00,68.4,45.0,30.02,ENE,77,0.0,0.0,43,0.00,,,0.00,meteobridge,2016-07-27 13:43:00,
2016-07-27 06:48:00,68.4,45.0,30.02,ENE,77,0.0,0.0,43,0.00,,,0.00,meteobridge,2016-07-27 13:48:00,
2016-07-27 06:53:00,68.4,45.0,30.02,ENE,77,0.0,0.0,43,0.00,,,0.00,meteobridge,2016-07-27 13:53:00,
2016-07-27 06:58:00,68.4,46.2,30.02,ENE,77,0.0,0.0,45,0.00,,,0.00,meteobridge,2016-07-27 13:58:00,
2016-07-27 07:03:00,68.4,46.8,30.02,ENE,77,0.0,0.0,46,0.00,,,0.00,meteobridge,2016-07-27 14:03:00,
2016-07-27 07:09:00,68.4,46.8,30.02,ENE,77,0.0,0.0,46,0.00,,,0.00,meteobridge,2016-07-27 14:09:00,
2016-07-27 07:14:00,68.4,46.8,30.02,ENE,77,0.0,0.0,46,0.00,,,0.00,meteobridge,2016-07-27 14:14:00,
2016-07-27 07:19:00,68.4,46.8,30.03,ENE,77,0.0,0.0,46,0.00,,,0.00,meteobridge,2016-07-27 14:19:00,
2016-07-27 07:24:00,68.4,46.8,30.03,ENE,77,0.0,0.0,46,0.00,,,0.00,meteobridge,2016-07-27 14:24:00,
2016-07-27 07:29:00,68.4,46.2,30.03,ENE,77,0.0,0.0,45,0.00,,,0.00,meteobridge,2016-07-27 14:29:00,
2016-07-27 07:34:00,68.5,45.7,30.03,ENE,77,0.0,0.0,44,0.00,,,0.00,meteobridge,2016-07-27 14:34:00,
2016-07-27 07:39:00,68.5,45.7,30.03,ENE,77,0.0,0.0,44,0.00,,,0.00,meteobridge,2016-07-27 14:39:00,
2016-07-27 07:44:00,68.7,45.9,30.03,ENE,77,0.0,0.0,44,0.00,,,0.00,meteobridge,2016-07-27 14:44:00,
2016-07-27 07:49:00,69.1,46.2,30.03,ENE,77,0.0,0.0,44,0.00,,,0.00,meteobridge,2016-07-27 14:49:00,
2016-07-27 07:54:00,69.1,46.2,30.03,ENE,77,0.0,0.0,44,0.00,,,0.00,meteobridge,2016-07-27 14:54:00,
2016-07-27 07:59:00,69.4,46.6,30.03,ENE,77,0.0,0.0,44,0.00,,,0.00,meteobridge,2016-07-27 14:59:00,
2016-07-27 08:04:00,69.6,46.8,30.03,ENE,77,0.0,0.0,44,0.00,,,0.00,meteobridge,2016-07-27 15:04:00,
2016-07-27 08:09:00,70.0,47.1,30.03,ENE,77,0.0,0.0,44,0.00,,,0.00,meteobridge,2016-07-27 15:09:00,
2016-07-27 08:14:00,70.3,46.8,30.03,ENE,77,0.0,0.0,43,0.00,,,0.00,meteobridge,2016-07-27 15:14:00,
2016-07-27 08:20:00,70.7,47.1,30.04,ENE,77,0.0,0.0,43,0.00,,,0.00,meteobridge,2016-07-27 15:20:00,
2016-07-27 08:25:00,71.1,47.5,30.03,ENE,77,0.0,0.0,43,0.00,,,0.00,meteobridge,2016-07-27 15:25:00,
2016-07-27 08:30:00,71.4,47.8,30.04,ENE,77,0.0,0.0,43,0.00,,,0.00,meteobridge,2016-07-27 15:30:00,
2016-07-27 08:35:00,71.8,48.0,30.04,ENE,77,0.0,0.0,43,0.00,,,0.00,meteobridge,2016-07-27 15:35:00,
2016-07-27 08:40:00,72.1,48.4,30.04,ENE,77,0.0,0.0,43,0.00,,,0.00,meteobridge,2016-07-27 15:40:00,
2016-07-27 08:45:00,72.5,48.7,30.03,ENE,77,0.0,0.0,43,0.00,,,0.00,meteobridge,2016-07-27 15:45:00,
2016-07-27 08:50:00,72.9,49.1,30.03,ENE,77,0.0,0.0,43,0.00,,,0.00,meteobridge,2016-07-27 15:50:00,
2016-07-27 08:55:00,73.0,49.3,30.03,ENE,77,0.0,0.0,43,0.00,,,0.00,meteobridge,2016-07-27 15:55:00,
2016-07-27 09:00:00,73.6,49.6,30.03,ENE,77,0.0,0.0,43,0.00,,,0.00,meteobridge,2016-07-27 16:00:00,
2016-07-27 09:05:00,74.5,50.5,30.03,ENE,77,0.0,0.0,43,0.00,,,0.00,meteobridge,2016-07-27 16:05:00,
2016-07-27 09:10:00,75.9,53.1,30.03,ENE,77,0.0,0.0,45,0.00,,,0.00,meteobridge,2016-07-27 16:10:00,
2016-07-27 09:15:00,77.2,53.6,30.03,ENE,77,0.0,0.0,44,0.00,,,0.00,meteobridge,2016-07-27 16:15:00,
2016-07-27 09:20:00,77.7,54.7,30.03,ENE,77,0.0,0.0,45,0.00,,,0.00,meteobridge,2016-07-27 16:20:00,
2016-07-27 09:25:00,78.3,51.3,30.03,ENE,77,0.0,0.0,39,0.00,,,0.00,meteobridge,2016-07-27 16:25:00,
2016-07-27 09:30:00,78.6,50.9,30.03,ENE,77,0.0,0.0,38,0.00,,,0.00,meteobridge,2016-07-27 16:30:00,
2016-07-27 09:35:00,79.2,52.2,30.03,ENE,77,0.0,0.0,39,0.00,,,0.00,meteobridge,2016-07-27 16:35:00,
2016-07-27 09:41:00,79.5,52.3,30.04,ENE,77,0.0,0.0,39,0.00,,,0.00,meteobridge,2016-07-27 16:41:00,
2016-07-27 09:46:00,79.9,50.5,30.03,ENE,77,0.0,0.0,36,0.00,,,0.00,meteobridge,2016-07-27 16:46:00,
2016-07-27 09:51:00,80.2,47.7,30.03,ENE,77,0.0,0.0,32,0.00,,,0.00,meteobridge,2016-07-27 16:51:00,
2016-07-27 09:56:00,80.8,50.5,30.03,ENE,77,0.0,0.0,35,0.00,,,0.00,meteobridge,2016-07-27 16:56:00,
2016-07-27 10:01:00,81.3,51.8,30.03,ENE,77,0.0,0.0,36,0.00,,,0.00,meteobridge,2016-07-27 17:01:00,
2016-07-27 10:06:00,82.0,51.6,30.04,ENE,77,0.0,0.0,35,0.00,,,0.00,meteobridge,2016-07-27 17:06:00,
2016-07-27 10:11:00,82.8,45.3,30.04,ENE,77,0.0,0.0,27,0.00,,,0.00,meteobridge,2016-07-27 17:11:00,
2016-07-27 10:16:00,83.7,48.9,30.03,ENE,77,0.0,0.0,30,0.00,,,0.00,meteobridge,2016-07-27 17:16:00,
2016-07-27 10:21:00,84.4,47.7,30.04,WSW,240,0.0,0.0,28,0.00,,,0.00,meteobridge,2016-07-27 17:21:00,
2016-07-27 10:27:00,85.5,49.6,30.04,WSW,243,0.0,0.0,29,0.00,,,0.00,meteobridge,2016-07-27 17:27:00,
2016-07-27 10:32:00,86.4,49.5,30.04,WSW,240,0.0,0.0,28,0.00,,,0.00,meteobridge,2016-07-27 17:32:00,
2016-07-27 10:37:00,87.6,51.4,30.04,North,356,0.0,0.0,29,0.00,,,0.00,meteobridge,2016-07-27 17:37:00,
2016-07-27 10:42:00,88.9,48.6,30.04,North,358,0.0,0.0,25,0.00,,,0.00,meteobridge,2016-07-27 17:42:00,
2016-07-27 10:47:00,90.1,51.6,30.03,North,358,0.0,0.0,27,0.00,,,0.00,meteobridge,2016-07-27 17:47:00,
2016-07-27 10:52:00,91.6,54.9,30.04,WSW,247,0.0,0.0,29,0.00,,,0.00,meteobridge,2016-07-27 17:52:00,
2016-07-27 10:57:00,92.1,54.3,30.04,NNE,26,0.0,0.0,28,0.00,,,0.00,meteobridge,2016-07-27 17:57:00,
2016-07-27 11:02:00,93.0,52.0,30.04,NNE,21,0.0,0.0,25,0.00,,,0.00,meteobridge,2016-07-27 18:02:00,
2016-07-27 11:07:00,92.8,48.4,30.04,WSW,245,0.0,0.0,22,0.00,,,0.00,meteobridge,2016-07-27 18:07:00,
2016-07-27 11:12:00,93.4,48.9,30.03,WSW,251,0.0,0.0,22,0.00,,,0.00,meteobridge,2016-07-27 18:12:00,
2016-07-27 11:17:00,94.3,52.0,30.03,WSW,250,0.0,0.0,24,0.00,,,0.00,meteobridge,2016-07-27 18:17:00,
2016-07-27 11:23:00,95.5,53.1,30.03,WSW,251,0.0,0.0,24,0.00,,,0.00,meteobridge,2016-07-27 18:23:00,
2016-07-27 11:28:00,96.4,54.9,30.03,NW,312,0.0,0.0,25,0.00,,,0.00,meteobridge,2016-07-27 18:28:00,
2016-07-27 11:33:00,97.0,51.8,30.03,NNW,345,0.0,0.0,22,0.00,,,0.00,meteobridge,2016-07-27 18:33:00,
2016-07-27 11:38:00,97.0,51.8,30.03,North,1,0.0,0.0,22,0.00,,,0.00,meteobridge,2016-07-27 18:38:00,
2016-07-27 11:43:00,97.9,53.8,30.03,North,1,0.0,0.0,23,0.00,,,0.00,meteobridge,2016-07-27 18:43:00,
2016-07-27 11:48:00,97.9,51.3,30.03,SE,125,0.0,0.0,21,0.00,,,0.00,meteobridge,2016-07-27 18:48:00,
2016-07-27 11:53:00,98.4,54.3,30.03,South,170,0.0,0.0,23,0.00,,,0.00,meteobridge,2016-07-27 18:53:00,
2016-07-27 11:58:00,98.8,54.5,30.03,SW,224,0.0,0.0,23,0.00,,,0.00,meteobridge,2016-07-27 18:58:00,
2016-07-27 12:03:00,98.8,52.0,30.03,North,349,0.0,0.0,21,0.00,,,0.00,meteobridge,2016-07-27 19:03:00,
2016-07-27 12:08:00,97.9,51.3,30.03,East,89,0.0,0.0,21,0.00,,,0.00,meteobridge,2016-07-27 19:08:00,
2016-07-27 12:13:00,97.2,53.2,30.03,WSW,251,0.0,0.0,23,0.00,,,0.00,meteobridge,2016-07-27 19:13:00,
2016-07-27 12:18:00,97.7,55.9,30.03,WNW,290,0.0,0.0,25,0.00,,,0.00,meteobridge,2016-07-27 19:18:00,
2016-07-27 12:23:00,98.4,54.3,30.03,WNW,292,0.0,0.0,23,0.00,,,0.00,meteobridge,2016-07-27 19:23:00,
2016-07-27 12:28:00,99.5,56.3,30.03,NNE,16,0.0,0.0,24,0.00,,,0.00,meteobridge,2016-07-27 19:28:00,
2016-07-27 12:33:00,98.4,53.1,30.03,NNE,32,0.0,0.0,22,0.00,,,0.00,meteobridge,2016-07-27 19:33:00,
2016-07-27 12:39:00,97.5,52.3,30.03,ENE,77,0.0,0.0,22,0.00,,,0.00,meteobridge,2016-07-27 19:39:00,
2016-07-27 12:44:00,98.1,51.4,30.03,NE,40,0.0,0.0,21,0.00,,,0.00,meteobridge,2016-07-27 19:44:00,
2016-07-27 12:49:00,98.6,53.2,30.03,NNE,26,0.0,0.0,22,0.00,,,0.00,meteobridge,2016-07-27 19:49:00,
2016-07-27 12:54:00,98.2,50.4,30.03,ENE,64,0.0,0.0,20,0.00,,,0.00,meteobridge,2016-07-27 19:54:00,
2016-07-27 12:59:00,97.5,53.4,30.03,North,350,0.0,0.0,23,0.00,,,0.00,meteobridge,2016-07-27 19:59:00,